Location: Nebel
(54.6502°N, 8.3475°E)
Time: 21:14:00
(UTC+01:00)

Envisat - Pass Details

Date: 11 December 2022
Orbit: 763 x 765 km, 98.2° (Epoch: 08 February)

Event Time Altitude Azimuth Distance (km) Brightness Sun altitude
Rises 05:17:41 0° 13° (NNE) 3,249 6.4 -27.5°
Reaches altitude 10° 05:20:00 10° 11° (NNE) 2,318 5.6 -27.1°
Enters shadow 05:23:01 36° 1° (N) 1,212 3.9 -26.7°
